Location: De Greiden
(52.9496°N, 5.9137°E)
Time: 01:17:51
(UTC+00:00)

Cosmos 858 Rocket - Pass Details

Date: 24 January 2021
Orbit: 756 x 774 km, 74.1° (Epoch: 26 February)

Event Time Altitude Azimuth Distance (km) Brightness Sun altitude
Rises 18:57:31 0° 206° (SSW) 3,242 8.1 -25.4°
Reaches altitude 10° 18:59:53 10° 207° (SSW) 2,319 7.3 -25.7°
Maximum altitude 19:05:10 84° 296° (WNW) 786 4.5 -26.5°
Enters shadow 19:05:46 71° 8° (N) 824 4.5 -26.6°
